Back to catalog

STARLINK-34336

AliveCommunicationsVLEO
NORAD 64462·PAYLOAD·🇺🇸 United States

Launched Jun 18, 2025 from Cape Canaveral Space Force Station

Loading…

Next Passes (next 24 hours)

TLE

FreshSource: CelesTrak SupGP

Epoch: Sep 14, 2026, 20:51 UTC

1 64462C 25130AA  26257.86923611  .00014072  00000+0  45266-3 0  2577
2 64462  53.1592 290.9047 0001213  83.4420 182.9213 15.31685745    10

Track STARLINK-34336 in real time with AllMySat

Download on the App Store